EHI
1 1 0 0 0 0 0 0 0 0 0 0 0 0 0 0 0 0 0 0 0 0 0 0 0 0 0 1 1 1 2 3 3 3 3 3 3 3 3 3 4 5 5 4 3 3 3 3 2
1 0 0 0 0 0 0 0 0 0 0 0 0 0 0 0 0 0 0 0 0 0 0 0 0 0 0 0 0 1 2 2 2 2 2 2 2 2 2 2 3 4 3 3 3 3 3 3 3
0 0 0 0 0 0 0 0 0 0 0 0 0 0 0 0 0 0 0 0 0 0 0 0 0 0 0 0 0 0 1 1 1 2 1 1 1 1 1 1 1 1 1 1 2 3 3 3 3
0 0 0 0 0 0 0 0 0 0 0 0 0 0 0 0 0 0 0 0 0 0 0 0 0 0 0 0 0 0 0 1 2 3 2 1 0 0 0 0 0 0 0 0 1 1 2 2 2
0 0 0 0 0 0 0 0 0 0 0 0 0 0 0 0 0 0 0 0 0 0 0 0 0 0 0 0 1 0 0 1 2 4 4 2 0 0 0 0 0 0 0 0 0 0 1 1 1
0 0 0 0 0 0 0 0 0 0 0 0 0 0 0 0 0 0 0 0 0 0 0 0 0 0 0 0 0 0 0 1 2 3 3 1 0 0 0 0 0 0 0 0 0 0 0 0 0
0 0 0 0 0 0 0 0 0 0 0 0 0 0 0 0 0 0 0 0 0 0 0 0 0 0 0 0 0 0 0 0 1 2 1 0 0 0 0 0 0 0 0 0 0 0 0 0 0
0 0 0 0 0 0 0 0 0 0 0 0 0 0 0 0 0 0 0 0 0 0 0 0 0 0 0 0 0 0 0 0 1 1 1 0 0 0 0 0 0 0 0 0 0 0 0 0 0
0 0 0 0 0 0 0 0 0 0 0 0 0 0 0 0 0 0 0 0 0 0 0 0 0 0 0 0 0 0 0 0 0 0 0 0 0 0 0 0 0 0 0 0 0 0 0 0 0
0 0 0 0 0 0 0 0 0 0 0 0 0 0 0 0 0 0 0 0 0 0 0 0 0 0 0 0 0 0 0 0 0 0 0 0 0 0 0 0 0 0 0 0 0 0 0 0 0
0 0 0 0 0 0 0 0 0 0 0 0 0 0 0 0 0 0 0 0 0 0 0 0 0 0 0 0 0 0 0 0 0 0 0 0 0 0 0 0 0 0 0 0 0 0 0 0 0
0 0 0 0 0 0 0 0 0 0 0 0 0 0 0 0 0 0 0 0 0 0 0 0 0 0 0 0 0 0 0 0 0 0 0 0 0 0 0 0 0 0 0 0 0 0 0 0 0
0 0 0 0 0 0 0 0 0 0 0 0 0 0 0 0 0 0 0 0 0 0 0 0 0 0 0 0 0 0 0 0 0 0 0 0 0 0 0 0 0 0 0 0 0 0 0 0 0
0 0 0 0 0 0 0 0 0 0 0 0 0 0 0 0 0 0 0 0 0 0 0 0 0 0 0 0 0 0 0 0 0 0 0 0 0 0 0 0 0 0 0 0 0 0 0 0 0
0 0 0 0 0 0 0 0 0 0 0 0 0 0 0 0 0 0 0 0 0 0 0 0 0 0 0 0 0 0 0 0 0 0 0 0 0 0 0 0 0 0 0 0 0 0 0 0 0
0 0 0 0 0 0 0 0 0 0 0 0 0 0 0 0 0 0 0 0 0 0 0 0 0 0 0 0 0 0 0 0 0 0 0 0 0 0 0 0 0 0 0 0 0 0 0 0 0
0 0 0 0 0 0 0 0 0 0 0 0 0 0 0 0 0 0 0 0 0 0 0 0 0 0 0 0 0 0 0 0 0 0 0 0 0 0 0 0 0 0 0 0 0 0 0 0 0
0 0 0 0 0 0 0 0 0 0 0 0 0 0 0 0 0 0 0 0 0 0 0 0 0 0 0 0 0 0 0 0 0 0 0 0 0 0 0 0 0 0 0 0 0 0 0 0 0
0 0 0 0 0 0 0 0 0 0 0 0 0 0 0 0 0 0 0 0 0 0 0 0 0 0 0 0 0 0 0 0 0 0 0 0 0 0 0 0 0 0 0 0 0 0 0 0 0
0 0 0 0 0 0 0 0 0 0 0 0 0 0 0 0 0 0 0 0 0 0 0 0 0 0 0 0 0 0 0 0 0 0 0 0 0 0 0 0 0 0 0 0 0 0 0 0 0
0 0 0 0 0 0 0 0 0 0 0 0 0 0 0 0 0 0 0 0 0 0 0 0 0 0 0 0 0 0 0 0 0 0 0 0 0 0 0 0 0 0 0 0 0 0 0 0 0
0 0 0 0 0 0 0 0 0 0 0 0 0 0 0 0 0 0 0 0 0 0 0 0 0 0 0 0 0 0 0 0 0 0 0 0 0 0 0 0 0 0 0 0 0 0 0 0 0
0 0 0 0 0 0 0 0 0 0 0 0 0 0 0 0 0 0 0 0 0 0 0 0 0 0 0 0 0 0 0 0 0 0 0 0 0 0 0 0 0 0 0 0 0 0 0 0 0
0 0 0 0 0 0 0 0 0 0 0 0 0 0 0 0 0 0 0 0 0 0 0 0 0 0 0 0 0 0 0 0 0 0 0 0 0 0 0 0 0 0 0 0 0 0 0 0 0
0 0 0 0 0 0 0 0 0 0 0 0 0 0 0 0 0 0 0 0 0 0 0 0 0 0 0 0 0 0 0 0 0 0 0 0 0 0 0 0 0 0 0 0 0 0 0 0 0
0 0 0 0 0 0 0 0 0 0 0 0 0 0 0 0 0 0 0 0 0 0 0 0 0 0 0 0 0 0 0 0 0 0 0 0 0 0 0 0 0 0 0 0 0 0 0 0 0
0 0 0 0 0 0 0 0 0 0 0 0 0 0 0 0 0 0 0 0 0 0 0 0 0 0 0 0 0 0 0 0 0 0 0 0 0 0 0 0 0 0 0 0 0 0 0 0 0
0 0 0 0 0 0 0 0 0 0 0 0 0 0 0 0 0 0 0 0 0 0 0 0 0 0 0 0 0 0 0 0 0 0 0 0 0 0 0 0 0 0 0 0 0 0 0 0 0
0 0 0 0 0 0 0 0 0 0 0 0 0 0 0 0 0 0 0 0 0 0 0 0 0 0 0 0 0 0 0 0 0 0 0 0 0 0 0 0 0 0 0 0 0 0 0 0 0
0 0 0 0 0 0 0 0 0 0 0 0 0 0 0 0 0 0 0 0 0 0 0 0 0 0 0 0 0 0 0 0 0 0 0 0 0 0 0 0 0 0 0 0 0 0 0 0 0
Wind_Speed
4 2 2 3 5 5 2 1 1 2 3 2 5 6 7 5 3 4 1 3 4 4 3 6 9 10 10 10 11 10 10 10 10 10 10 9 9 8 8 8 7 7 7 6 6 6 6 6 6
1 1 3 4 5 3 1 1 2 2 4 4 5 6 6 5 4 4 2 3 5 5 4 5 9 10 10 10 10 10 10 10 10 10 9 8 8 8 7 7 7 7 7 6 5 6 6 6 5
1 2 3 4 3 3 1 1 3 4 4 2 4 5 5 3 3 3 3 5 5 4 4 4 8 9 9 9 9 9 9 9 9 8 8 7 7 7 7 7 7 6 6 5 5 5 5 6 5
3 4 4 5 3 0 1 2 4 4 4 5 4 5 4 2 3 4 6 6 6 4 3 4 8 8 8 8 8 8 8 8 7 7 7 7 6 6 6 6 6 6 5 5 5 5 5 5 5
4 4 5 4 2 2 2 1 2 3 3 4 4 5 4 4 6 7 7 6 5 4 3 3 6 7 7 7 7 7 7 6 6 6 6 6 6 6 5 5 5 5 5 5 5 4 5 5 5
4 4 5 2 1 2 2 2 3 4 4 4 4 5 3 2 5 5 5 5 4 4 2 2 5 6 6 6 6 5 5 5 5 5 5 5 5 5 6 6 5 5 5 5 4 4 4 4 4
4 4 3 2 1 1 2 2 3 4 4 3 4 5 3 1 2 4 5 4 4 3 3 3 3 3 4 5 5 5 5 5 5 6 6 5 5 6 6 7 6 5 5 5 4 3 4 4 4
4 4 3 2 2 1 1 2 3 4 4 3 3 6 5 4 4 5 5 4 3 3 3 2 2 3 3 4 4 5 6 7 7 7 7 7 7 7 7 7 7 6 6 6 5 5 5 5 5
3 5 2 2 2 1 1 3 2 3 5 3 3 3 6 8 8 6 5 3 2 2 1 1 2 2 3 3 4 6 7 8 8 7 9 8 5 5 5 7 8 8 7 7 7 7 7 7 6
4 3 2 1 2 2 2 3 2 4 4 4 5 6 9 8 8 6 5 4 3 1 0 1 1 1 2 3 4 3 4 4 4 4 5 4 4 4 5 8 10 10 9 9 9 9 8 6 4
3 3 1 2 2 3 3 2 2 5 3 4 8 10 9 7 6 5 4 3 3 2 1 1 1 1 2 2 2 2 2 3 4 5 4 3 3 3 4 3 5 6 7 5 5 6 4 4 3
3 2 2 2 2 2 2 3 3 2 2 5 8 10 8 7 6 5 4 3 2 2 1 1 2 2 2 2 2 2 2 2 3 3 4 3 2 3 3 3 3 3 2 3 3 3 4 4 4
3 2 3 4 5 3 4 4 4 3 4 7 8 8 7 6 4 3 2 2 2 2 2 1 2 3 2 2 2 2 2 2 2 3 3 3 3 3 3 3 3 3 3 3 3 3 4 5 4
3 4 4 4 5 3 5 3 4 3 5 6 7 7 6 5 5 3 3 3 3 3 3 2 3 3 3 2 2 2 2 2 3 3 3 4 3 2 3 3 3 3 3 3 3 4 4 4 4
4 5 5 4 3 2 4 5 2 3 5 5 5 5 5 4 4 5 5 4 5 4 3 4 4 3 4 3 3 2 2 3 3 3 3 4 3 3 3 3 3 3 3 4 4 4 4 4 5
4 4 3 2 2 1 4 3 2 4 6 5 4 4 4 3 3 4 5 5 5 4 4 3 4 5 4 4 3 3 3 3 3 3 3 4 4 4 3 4 3 3 3 3 4 4 4 5 5
4 2 1 1 1 2 3 3 2 4 6 5 4 4 4 3 3 3 4 5 5 5 5 4 5 5 5 4 4 4 3 4 3 3 3 4 4 4 4 4 3 4 4 4 4 4 3 4 5
2 2 1 1 0 2 2 2 3 4 5 5 5 4 4 4 4 4 4 5 5 5 5 5 5 5 5 4 3 3 4 3 3 3 4 4 4 4 4 4 4 4 4 4 4 5 4 4 4
4 4 2 1 0 2 2 3 4 5 4 5 4 4 5 5 3 3 4 5 6 5 5 5 5 4 4 3 2 2 2 2 3 3 4 4 4 4 4 4 4 4 4 4 4 3 5 4 3
4 3 1 1 1 2 2 1 3 5 5 6 7 6 6 5 4 4 4 4 5 5 5 5 5 4 3 2 2 2 2 1 2 2 4 5 5 4 4 4 4 4 4 5 4 3 3 3 4
2 3 3 2 2 3 3 1 2 2 3 4 6 6 6 7 8 7 6 5 5 5 6 6 5 4 4 4 3 3 3 3 3 4 3 4 4 5 4 5 4 4 4 4 4 3 4 3 3
1 2 3 3 3 0 1 1 4 4 4 6 7 7 7 7 7 7 7 6 6 6 5 5 5 4 4 4 4 4 3 2 1 1 2 3 4 4 4 4 5 4 4 4 4 3 3 3 2
3 2 4 3 3 1 0 1 5 2 6 9 9 9 8 8 9 8 8 8 6 6 5 5 5 4 4 4 5 5 3 2 1 2 3 4 4 4 4 4 4 4 4 4 4 4 4 3 2
4 5 5 4 3 0 2 2 5 5 9 8 9 9 9 9 8 8 7 6 5 5 5 5 6 4 4 4 4 5 5 4 3 2 2 2 2 3 4 4 4 4 4 4 4 4 5 4 4
4 5 3 3 2 3 2 3 8 7 7 10 11 11 10 9 9 9 9 8 7 7 6 6 6 5 4 5 4 4 5 5 4 3 2 1 1 2 3 3 3 3 3 4 4 5 5 4 5
2 5 5 3 3 2 1 5 8 6 5 6 7 8 8 9 9 10 10 10 9 9 8 7 7 6 5 5 4 4 4 3 2 3 2 2 1 1 1 3 3 3 4 4 4 4 4 4 5
5 3 4 5 1 1 3 5 8 2 1 3 5 7 9 10 10 10 10 9 9 9 9 9 8 6 6 5 5 4 4 4 3 3 2 2 1 1 2 3 3 4 4 4 4 4 4 4 4
4 6 4 4 2 2 3 4 4 3 2 3 5 9 10 9 9 9 9 9 8 8 7 7 7 7 6 6 5 4 4 4 4 3 3 2 2 2 3 3 3 3 4 4 4 4 3 5 4
3 3 4 3 3 3 2 6 5 6 5 6 8 9 10 10 11 10 9 9 8 7 7 7 7 6 6 6 5 5 4 4 4 4 3 3 2 3 3 3 3 3 3 3 4 4 4 5 4
3 5 5 4 2 3 2 7 5 5 5 5 6 7 7 9 9 9 8 8 7 8 8 8 7 7 6 6 5 5 5 5 4 4 3 3 3 3 3 3 3 3 3 3 3 3 3 4 4
Wind_Direction
341 43 74 58 55 54 56 6 101 87 64 61 69 76 80 64 69 119 136 128 124 113 103 111 109 104 100 96 92 89 85 82 79 77 74 72 72 70 68 64 64 64 60 54 56 56 56 53 50
346 72 57 59 78 74 6 346 92 100 137 138 75 70 72 67 67 100 121 130 118 112 104 112 110 105 101 96 92 89 85 81 77 73 70 67 66 65 63 61 61 61 59 52 50 51 50 46 44
22 55 77 69 86 140 149 81 108 91 102 93 76 59 72 88 109 125 146 132 110 102 96 111 110 106 100 94 91 88 85 81 75 71 68 65 61 58 57 57 59 58 57 51 43 45 45 42 39
68 44 54 68 74 77 149 130 120 114 69 52 89 70 61 55 132 136 129 122 109 101 98 115 117 109 101 96 92 87 82 76 71 65 61 58 57 54 50 49 48 47 43 41 38 41 40 38 39
61 72 62 56 43 27 49 91 89 84 65 52 79 83 50 12 97 116 123 122 120 111 103 118 118 110 104 98 89 83 77 69 62 55 51 45 43 41 40 35 31 31 31 34 34 34 34 41 42
55 64 79 86 42 30 36 40 87 83 89 84 79 88 69 57 108 126 124 121 119 114 94 90 113 112 102 92 82 75 68 57 49 43 37 31 30 29 26 22 23 22 23 26 29 27 31 44 49
88 81 104 120 97 36 57 50 88 101 100 103 105 96 103 122 141 128 114 106 98 88 74 49 40 60 71 71 64 56 48 40 36 34 31 27 20 16 16 12 11 12 19 27 33 36 44 56 57
107 94 85 101 117 80 31 54 79 99 99 102 101 128 158 179 137 105 94 85 79 74 68 58 38 37 37 28 32 38 35 34 33 31 28 27 22 17 17 8 9 21 29 33 40 49 60 63 66
84 76 112 166 151 147 75 89 64 71 98 70 68 127 145 135 119 108 99 85 86 93 62 64 44 35 34 17 27 31 33 32 31 28 32 32 23 16 14 12 24 29 36 40 46 57 60 59 57
76 105 172 177 155 137 95 89 102 94 84 78 77 93 115 124 131 135 141 148 152 161 178 107 76 39 29 27 33 23 29 25 25 25 25 24 24 18 27 19 28 31 36 37 42 47 51 54 43
75 120 124 83 111 113 100 71 51 113 120 152 144 140 135 136 142 151 161 163 173 178 180 132 134 62 46 39 36 29 24 24 22 24 26 29 30 23 23 19 17 20 28 27 29 37 37 48 50
89 61 94 93 83 89 103 94 77 88 151 146 145 142 144 149 160 169 170 165 154 145 167 134 105 85 67 64 51 44 38 29 25 20 25 36 34 27 19 21 13 18 15 27 34 40 43 52 54
73 79 67 77 73 83 89 84 89 70 100 114 125 134 149 159 167 167 161 152 140 145 161 134 110 103 92 74 52 55 45 40 34 27 24 42 47 33 27 22 24 21 22 35 42 46 52 53 52
86 88 81 66 64 60 94 75 76 94 114 124 139 151 159 165 166 157 160 156 153 158 159 124 111 111 103 90 73 55 48 47 44 35 29 44 52 47 42 33 29 24 22 34 50 55 60 56 58
89 81 56 43 55 64 95 69 91 148 133 144 157 159 164 170 169 174 176 163 160 155 141 129 123 109 102 91 78 65 47 49 45 31 31 41 47 51 50 44 36 22 26 44 56 55 58 61 58
62 62 56 2 55 80 103 126 157 157 150 163 172 166 169 176 183 175 166 155 153 146 138 138 127 114 104 89 76 64 51 50 41 31 32 38 43 50 54 48 33 21 38 50 61 55 64 58 58
50 84 98 347 48 83 106 156 185 161 158 172 183 180 178 179 183 177 170 161 154 151 136 124 117 115 105 91 76 64 53 45 36 34 33 33 41 45 56 50 32 32 48 47 62 56 68 71 67
149 128 121 249 1 105 125 170 170 169 168 175 182 178 175 186 197 170 163 151 138 133 125 120 111 109 105 88 73 55 45 34 32 33 29 33 40 46 53 52 37 40 55 49 54 69 62 65 68
138 134 158 255 332 115 157 180 192 173 177 180 179 176 179 195 188 153 151 135 126 125 127 131 129 128 119 99 89 75 45 18 22 25 28 34 43 48 54 52 42 43 58 58 62 77 70 51 38
120 131 142 16 51 117 138 199 203 179 191 187 181 186 187 183 160 163 153 144 146 145 144 143 144 143 136 122 119 113 104 57 34 13 26 28 38 43 59 58 52 44 58 55 51 67 80 46 28
132 164 174 156 67 61 101 336 240 212 190 185 182 185 189 188 179 177 169 168 154 159 164 161 157 147 138 127 106 82 56 37 26 18 14 11 30 46 55 58 58 49 57 62 53 60 87 87 39
197 204 161 136 113 35 127 225 258 210 201 201 199 191 192 191 184 180 175 173 174 176 165 155 153 146 144 139 133 128 118 106 48 14 15 20 31 43 49 56 57 55 54 57 52 59 75 100 85
173 99 111 119 122 78 41 193 275 189 213 218 209 202 198 192 187 185 183 180 177 167 160 154 146 145 147 143 139 128 117 118 86 53 48 36 29 34 41 54 59 57 56 58 58 58 63 73 92
126 83 67 59 74 342 231 192 269 218 212 210 207 202 199 194 187 186 179 165 163 158 154 149 148 151 146 141 141 141 138 135 115 83 62 36 27 26 31 50 57 61 61 59 61 64 65 66 77
84 90 56 20 27 255 251 214 251 236 214 204 201 201 195 188 180 177 171 172 171 169 167 159 157 159 156 151 153 157 153 149 146 141 125 95 48 32 20 42 54 58 64 64 64 65 60 60 72
132 128 151 178 210 273 263 242 258 257 229 207 197 191 183 181 181 182 182 180 177 176 174 168 168 168 166 164 164 159 153 146 147 149 143 137 122 92 54 62 61 61 67 70 66 65 58 60 66
133 142 152 125 132 277 270 282 300 312 223 193 181 178 186 186 184 184 182 182 180 180 182 179 173 170 173 171 159 155 155 152 153 149 137 133 129 109 86 79 71 65 68 70 74 68 60 63 60
139 143 111 117 142 267 291 274 258 280 268 216 192 191 193 188 184 183 182 184 184 182 179 175 172 174 173 168 167 164 162 159 153 143 144 143 134 106 102 91 86 78 71 73 77 71 65 70 56
129 119 114 116 148 161 277 276 231 223 224 215 209 201 194 189 188 186 185 183 176 169 170 174 173 169 170 170 165 155 158 154 149 150 156 152 138 129 123 117 108 100 90 87 88 83 78 77 63
157 162 147 149 198 181 203 271 266 232 231 219 211 203 196 191 187 184 179 172 172 175 176 178 176 177 178 169 161 161 156 151 154 160 161 151 143 135 132 123 113 111 106 102 105 103 93 93 86